WetterOnline ( https://www.wetteronline.de )

Wetter aktuell Freudental

Aktuelles Wetter: Mühlacker (245m)

6-stündlich | Neueste Meldungen
Ortszeit Temperatur Wetter
Di, 11.08. 2:00 19.0° C bedeckt
Mo, 10.08. 20:00 30.8° C wolkig
Mo, 10.08. 14:00 33.2° C wolkig
Mo, 10.08. 8:00 17.4° C wolkenlos
Mo, 10.08. 2:00 16.9° C wolkenlos
So, 09.08. 20:00 31.6° C wolkenlos
So, 09.08. 14:00 33.7° C wolkenlos
So, 09.08. 8:00 16.7° C wolkenlos
Ortszeit Temperatur Wetter
Di, 11.08. 3:30 18.8° C bedeckt
Di, 11.08. 3:20 18.8° C bedeckt
Di, 11.08. 3:10 19.2° C bedeckt
Di, 11.08. 3:00 19.1° C bedeckt
Di, 11.08. 2:50 19.1° C bedeckt
Di, 11.08. 2:40 19.3° C bedeckt
Di, 11.08. 2:30 19.1° C bedeckt
Di, 11.08. 2:00 19.0° C bedeckt
Di, 11.08. 1:30 18.5° C bewölkt
Di, 11.08. 1:00 18.7° C leicht bewölkt
Di, 11.08. 0:30 19.1° C wolkenlos
Di, 11.08. 0:00 19.8° C fast wolkenlos
Ortszeit Relative Feuchte Sichtweite
Di, 11.08. 2:00 75% 26 km
Mo, 10.08. 20:00 37% 35 km
Mo, 10.08. 14:00 31% 29 km
Mo, 10.08. 8:00 80% 18 km
Mo, 10.08. 2:00 75% 26 km
So, 09.08. 20:00 31% 40 km
So, 09.08. 14:00 28% 30 km
So, 09.08. 8:00 81% 21 km
Ortszeit Relative Feuchte Sichtweite
Di, 11.08. 3:30 77% 22 km
Di, 11.08. 3:20 77% -
Di, 11.08. 3:10 75% -
Di, 11.08. 3:00 76% 24 km
Di, 11.08. 2:50 76% -
Di, 11.08. 2:40 73% -
Di, 11.08. 2:30 73% 25 km
Di, 11.08. 2:00 75% 26 km
Di, 11.08. 1:30 73% 27 km
Di, 11.08. 1:00 71% 27 km
Di, 11.08. 0:30 70% 27 km
Di, 11.08. 0:00 67% 28 km
Ortszeit Niederschlagsmenge Niederschlagsart
Di, 11.08. 2:00 0.0 l/m2 in 6 Std. -
Mo, 10.08. 20:00 0.0 l/m2 in 12 Std. -
Mo, 10.08. 14:00 0.0 l/m2 in 6 Std. -
Mo, 10.08. 8:00 0.0 l/m2 in 12 Std. -
Mo, 10.08. 2:00 0.0 l/m2 in 6 Std. -
So, 09.08. 20:00 0.0 l/m2 in 12 Std. -
So, 09.08. 14:00 0.0 l/m2 in 6 Std. -
So, 09.08. 8:00 0.0 l/m2 in 12 Std. -
Ortszeit Niederschlagsmenge Niederschlagsart
Di, 11.08. 3:30 0.0 l/m2 in 1 Std. -
Di, 11.08. 3:20 keine Meldung -
Di, 11.08. 3:10 keine Meldung -
Di, 11.08. 3:00 0.0 l/m2 in 1 Std. -
Di, 11.08. 2:50 keine Meldung -
Di, 11.08. 2:40 keine Meldung -
Di, 11.08. 2:30 0.0 l/m2 in 1 Std. -
Di, 11.08. 2:00 0.0 l/m2 in 1 Std. -
Di, 11.08. 1:30 0.0 l/m2 in 1 Std. -
Di, 11.08. 1:00 0.0 l/m2 in 1 Std. -
Di, 11.08. 0:30 0.0 l/m2 in 1 Std. -
Di, 11.08. 0:00 0.0 l/m2 in 1 Std. -
Ortszeit Stärke Spitze Richtung
km/h Bft. km/h Grad Sektor
Di, 11.08. 2:00 4 1 7 70° O
Mo, 10.08. 20:00 4 1 43 100° O
Mo, 10.08. 14:00 14 3 29 120° SO
Mo, 10.08. 8:00 2 1 7 140° SO
Mo, 10.08. 2:00 2 1 6 40° NO
So, 09.08. 20:00 6 1 33 110° O
So, 09.08. 14:00 13 3 30 110° O
So, 09.08. 8:00 0 0 4 - -
Ortszeit Stärke Spitze Richtung
km/h Bft. km/h Grad Sektor
Di, 11.08. 3:30 2 1 4 90° O
Di, 11.08. 3:20 2 1 - 90° O
Di, 11.08. 3:10 0 0 - 220° SW
Di, 11.08. 3:00 4 1 7 90° O
Di, 11.08. 2:50 4 1 - 90° O
Di, 11.08. 2:40 4 1 - 60° NO
Di, 11.08. 2:30 4 1 7 250° W
Di, 11.08. 2:00 4 1 7 70° O
Di, 11.08. 1:30 0 0 4 - -
Di, 11.08. 1:00 0 0 4 - -
Di, 11.08. 0:30 0 0 4 - -
Di, 11.08. 0:00 0 0 7 - -
Ortszeit Untergrenze Bedeckung Gattung
total tief tief mittel hoch
Di, 11.08. 2:00 4500 m 8/8 8/8 - - -
Mo, 10.08. 20:00 4500 m 5/8 5/8 - - -
Mo, 10.08. 14:00 5100 m 8/8 8/8 - - -
Mo, 10.08. 8:00 - 0/8 0/8 - - -
Mo, 10.08. 2:00 - 0/8 0/8 - - -
So, 09.08. 20:00 - 0/8 0/8 - - -
So, 09.08. 14:00 - 0/8 0/8 - - -
So, 09.08. 8:00 - 0/8 0/8 - - -
Ortszeit Bedeckungsgrad in Achtel und Wolkenuntergrenze
Di, 11.08. 3:30 8(4800m)
Di, 11.08. 3:20 8(4800m)
Di, 11.08. 3:10 8(5100m)
Di, 11.08. 3:00 8(4800m)
Di, 11.08. 2:50 8(4800m)
Di, 11.08. 2:40 8(4800m)
Di, 11.08. 2:30 8(4800m)
Di, 11.08. 2:00 8(4500m)
Di, 11.08. 1:30 7(4500m)
Di, 11.08. 1:00 3(4500m)
Di, 11.08. 0:30 keine Wolken
Di, 11.08. 0:00 1(10500m)
Ortszeit Luftdruck NN (hPa) Tendenz (hPa in 3 Std.)
Di, 11.08. 2:00 1015 + 0,8
Mo, 10.08. 20:00 1012 - 0,1
Mo, 10.08. 14:00 1013 - 0,8
Mo, 10.08. 8:00 1015 + 0,1
Mo, 10.08. 2:00 1016 - 0,1
So, 09.08. 20:00 1014 - 0,8
So, 09.08. 14:00 1016 - 1,6
So, 09.08. 8:00 1019 + 0,5
Ortszeit Luftdruck NN (hPa) Tendenz (hPa in 3 Std.)
Di, 11.08. 3:30 1015 + 0,3
Di, 11.08. 3:20 1015 keine Meldung
Di, 11.08. 3:10 1015 keine Meldung
Di, 11.08. 3:00 1015 + 0,2
Di, 11.08. 2:50 1015 keine Meldung
Di, 11.08. 2:40 1015 keine Meldung
Di, 11.08. 2:30 1015 + 0,5
Di, 11.08. 2:00 1015 + 0,8
Di, 11.08. 1:30 1015 + 1,0
Di, 11.08. 1:00 1015 + 0,9
Di, 11.08. 0:30 1014 + 0,9
Di, 11.08. 0:00 1014 + 1,1
Ortszeit Schneehöhe (cm)
Di, 11.08. 2:00 -
Mo, 10.08. 20:00 -
Mo, 10.08. 14:00 -
Mo, 10.08. 8:00 -
Mo, 10.08. 2:00 -
So, 09.08. 20:00 -
So, 09.08. 14:00 -
So, 09.08. 8:00 -
Ortszeit Schneehöhe (cm)
Di, 11.08. 3:30 -
Di, 11.08. 3:20 -
Di, 11.08. 3:10 -
Di, 11.08. 3:00 -
Di, 11.08. 2:50 -
Di, 11.08. 2:40 -
Di, 11.08. 2:30 -
Di, 11.08. 2:00 -
Di, 11.08. 1:30 -
Di, 11.08. 1:00 -
Di, 11.08. 0:30 -
Di, 11.08. 0:00 -
Link zu dieser Seite / Seite empfehlen

Das Wetter in ...